FW7144 Weather Reports


Display with metric or nautical units.
time (UTC)temp
F
wind
direction
speed
MPH
gust
MPH
rain 1hr
in
rain 24hr
in
rain mn
in
humidity
%
barometer
mb
20260503025006 52 98 6.0 11.0 0.00 0.00 0.00 78 1023.4
20260503023830 53 110 6.0 13.0 0.00 0.00 0.00 78 1023.3
20260503023205 53 102 6.0 11.0 0.00 0.00 0.00 78 1023.2
20260503022630 53 94 6.0 11.0 0.00 0.00 0.00 78 1023.2
20260503022005 53 106 7.0 10.0 0.00 0.00 0.00 78 1023.0
20260503021405 53 130 4.0 7.0 0.00 0.00 0.00 77 1023.0
20260503020806 53 97 3.0 7.0 0.00 0.00 0.00 76 1022.8
20260503020205 54 113 4.0 8.0 0.00 0.00 0.00 75 1022.8
20260503015629 54 97 3.0 9.0 0.00 0.00 0.00 75 1022.6
20260503015005 54 97 4.0 4.0 0.00 0.00 0.00 75 1022.4
20260503014405 55 99 0.0 4.0 0.00 0.00 0.00 73 1022.3
20260503013805 55 109 3.0 5.0 0.00 0.00 0.00 73 1022.1
20260503013205 55 78 0.0 9.0 0.00 0.00 0.00 72 1022.0
20260503012605 56 72 3.0 8.0 0.00 0.00 0.00 72 1021.9
20260503012005 56 113 4.0 9.0 0.00 0.00 0.00 72 1021.8
20260503011405 56 95 4.0 11.0 0.00 0.00 0.00 71 1021.7
20260503010807 56 105 6.0 10.0 0.00 0.00 0.00 70 1021.6
20260503010230 57 106 4.0 9.0 0.00 0.00 0.00 69 1021.7
20260503005605 57 91 3.0 10.0 0.00 0.00 0.00 68 1021.5
20260503005005 58 111 6.0 9.0 0.00 0.00 0.00 68 1021.5
20260503004405 58 124 3.0 8.0 0.00 0.00 0.00 67 1021.5
20260503003805 59 127 4.0 8.0 0.00 0.00 0.00 66 1021.5
20260503003205 59 115 4.0 11.0 0.00 0.00 0.00 65 1021.6
20260503002606 59 121 4.0 11.0 0.00 0.00 0.00 66 1021.6
20260503002006 59 112 6.0 12.0 0.00 0.00 0.00 66 1021.7
20260503001405 59 85 7.0 13.0 0.00 0.00 0.00 66 1021.6
20260503000829 59 81 9.0 13.0 0.00 0.00 0.00 66 1021.5
20260502235605 60 91 9.0 18.0 0.00 0.00 0.00 64 1021.4
20260502235004 60 108 11.0 17.0 0.00 0.00 0.00 65 1021.3
20260502234405 60 124 8.0 17.0 0.00 0.00 0.00 65 1021.4
20260502233804 61 83 8.0 18.0 0.00 0.00 0.00 63 1021.2
20260502233205 61 94 10.0 21.0 0.00 0.00 0.00 62 1021.1
20260502232605 61 90 9.0 20.0 0.00 0.00 0.00 62 1021.1
20260502232030 62 98 13.0 19.0 0.00 0.00 0.00 62 1021.0
20260502231405 63 90 9.0 14.0 0.00 0.00 0.00 60 1021.0
20260502230205 63 103 9.0 16.0 0.00 0.00 0.00 59 1020.8
20260502225605 64 118 9.0 16.0 0.00 0.00 0.00 57 1020.7
20260502225005 64 116 11.0 17.0 0.00 0.00 0.00 59 1020.6
20260502223805 64 99 12.0 19.0 0.00 0.00 0.00 58 1020.4
20260502223205 65 91 9.0 18.0 0.00 0.00 0.00 57 1020.4
20260502222604 65 104 11.0 21.0 0.00 0.00 0.00 56 1020.2
20260502222005 65 98 12.0 20.0 0.00 0.00 0.00 56 1020.2
20260502221405 66 101 8.0 20.0 0.00 0.00 0.00 55 1020.2
20260502220805 66 87 8.0 20.0 0.00 0.00 0.00 54 1020.1
20260502220205 67 100 11.0 21.0 0.00 0.00 0.00 54 1020.0
20260502215605 67 97 10.0 21.0 0.00 0.00 0.00 53 1020.1
20260502215005 67 93 11.0 22.0 0.00 0.00 0.00 53 1019.8
20260502214405 68 105 12.0 23.0 0.00 0.00 0.00 51 1019.8
20260502213805 69 109 11.0 20.0 0.00 0.00 0.00 51 1019.6
20260502213204 69 74 9.0 17.0 0.00 0.00 0.00 50 1019.6
20260502212604 71 122 8.0 17.0 0.00 0.00 0.00 48 1019.6
20260502212004 70 132 8.0 21.0 0.00 0.00 0.00 50 1019.6
20260502211405 70 115 6.0 18.0 0.00 0.00 0.00 50 1019.5
20260502210805 70 116 7.0 20.0 0.00 0.00 0.00 49 1019.5
20260502210255 72 141 11.0 17.0 0.00 0.00 0.00 47 1019.4
20260502205605 72 147 9.0 18.0 0.00 0.00 0.00 47 1019.4
20260502205005 74 143 4.0 15.0 0.00 0.00 0.00 45 1019.4
20260502204405 75 123 4.0 11.0 0.00 0.00 0.00 44 1019.3
20260502203805 75 145 3.0 14.0 0.00 0.00 0.00 43 1019.3
20260502203205 74 112 4.0 12.0 0.00 0.00 0.00 45 1019.2
20260502202605 73 130 6.0 12.0 0.00 0.00 0.00 45 1019.3
20260502202017 73 148 5.0 13.0 0.00 0.00 0.00 45 1019.4
20260502201405 73 126 3.0 11.0 0.00 0.00 0.00 44 1019.5
20260502200805 74 91 0.0 12.0 0.00 0.00 0.00 44 1019.5
20260502200230 74 97 3.0 8.0 0.00 0.00 0.00 44 1019.6
20260502195605 73 53 1.0 9.0 0.00 0.00 0.00 45 1019.6
20260502195005 74 100 5.0 11.0 0.00 0.00 0.00 43 1019.6
20260502194430 72 81 3.0 13.0 0.00 0.00 0.00 46 1019.7
20260502193804 72 82 3.0 7.0 0.00 0.00 0.00 45 1019.8
20260502193205 72 119 4.0 13.0 0.00 0.00 0.00 45 1019.9
20260502192629 72 72 7.0 9.0 0.00 0.00 0.00 45 1019.9
20260502192005 73 89 3.0 11.0 0.00 0.00 0.00 43 1019.9
20260502191405 73 64 3.0 13.0 0.00 0.00 0.00 44 1020.0
20260502190805 74 76 5.0 13.0 0.00 0.00 0.00 43 1020.1
20260502190205 73 144 0.0 12.0 0.00 0.00 0.00 43 1020.2
20260502185604 74 112 2.0 8.0 0.00 0.00 0.00 42 1020.3
20260502185005 74 120 0.0 11.0 0.00 0.00 0.00 40 1020.3
20260502184406 74 188 4.0 17.0 0.00 0.00 0.00 42 1020.4
20260502183842 75 306 0.0 9.0 0.00 0.00 0.00 42 1020.4
20260502183205 73 354 3.0 12.0 0.00 0.00 0.00 44 1020.6
20260502182629 75 279 3.0 13.0 0.00 0.00 0.00 43 1020.6
20260502182042 74 271 0.0 5.0 0.00 0.00 0.00 43 1020.7
20260502181405 73 50 2.0 10.0 0.00 0.00 0.00 47 1020.8
20260502180830 74 17 4.0 11.0 0.00 0.00 0.00 46 1021.0
20260502180205 73 302 3.0 10.0 0.00 0.00 0.00 49 1021.0
20260502170229 70 267 3.0 18.0 0.00 0.00 0.00 57 1021.7
20260502163805 66 247 0.0 8.0 0.00 0.00 0.00 63 1021.9
20260502163205 66 262 0.0 3.0 0.00 0.00 0.00 64 1021.9
20260502162630 66 226 0.0 5.0 0.00 0.00 0.00 65 1022.0
20260502162005 65 246 0.0 7.0 0.00 0.00 0.00 65 1022.0
20260502161405 66 232 0.0 6.0 0.00 0.00 0.00 67 1022.0
20260502160831 64 297 0.0 7.0 0.00 0.00 0.00 66 1022.1
20260502160205 65 339 0.0 7.0 0.00 0.00 0.00 67 1022.1
20260502152005 62 30 0.0 3.0 0.00 0.00 0.00 72 1022.0
20260502151429 61 142 0.0 4.0 0.00 0.00 0.00 71 1022.0
20260502150805 61 168 0.0 3.0 0.00 0.00 0.00 72 1022.0
20260502150205 62 82 0.0 3.0 0.00 0.00 0.00 72 1021.9
20260502130230 58 135 0.0 4.0 0.00 0.00 0.00 78 1021.0
20260502123804 57 93 0.0 3.0 0.00 0.00 0.00 78 1020.8
20260502123204 57 144 0.0 3.0 0.00 0.00 0.00 78 1020.8
20260502122643 57 121 0.0 3.0 0.00 0.00 0.00 79 1020.7
20260502122005 57 150 0.0 0.0 0.00 0.00 0.00 79 1020.6
20260502121430 57 149 0.0 0.0 0.00 0.00 0.00 79 1020.5
20260502120805 57 164 0.0 0.0 0.00 0.00 0.00 79 1020.5
20260502120205 57 160 0.0 0.0 0.00 0.00 0.00 79 1020.4
20260502115630 57 160 0.0 0.0 0.00 0.00 0.00 79 1020.3
20260502115005 57 167 0.0 0.0 0.00 0.00 0.00 79 1020.3
20260502114405 57 166 0.0 0.0 0.00 0.00 0.00 79 1020.2
20260502113804 57 98 0.0 3.0 0.00 0.00 0.00 79 1020.1
20260502113229 57 101 0.0 0.0 0.00 0.00 0.00 79 1020.0
20260502112604 57 57 0.0 0.0 0.00 0.00 0.00 79 1020.0
20260502112004 57 70 0.0 0.0 0.00 0.00 0.00 79 1019.9
20260502111429 57 70 0.0 3.0 0.00 0.00 0.00 78 1019.9
20260502110805 57 93 0.0 3.0 0.00 0.00 0.00 78 1019.9
20260502110204 57 122 0.0 4.0 0.00 0.00 0.00 78 1019.8
20260502105605 57 134 0.0 5.0 0.00 0.00 0.00 78 1019.8
20260502105004 57 107 3.0 4.0 0.00 0.00 0.00 78 1019.8
20260502104405 57 97 0.0 4.0 0.00 0.00 0.00 79 1019.7
20260502103805 57 118 0.0 4.0 0.00 0.00 0.00 79 1019.7
20260502103205 57 134 0.0 4.0 0.00 0.00 0.00 79 1019.7
20260502102605 57 155 0.0 4.0 0.00 0.00 0.00 79 1019.7
20260502102017 57 150 0.0 5.0 0.00 0.00 0.00 79 1019.7
20260502101405 57 112 0.0 4.0 0.00 0.00 0.00 79 1019.7
20260502100804 57 103 2.0 5.0 0.00 0.00 0.00 79 1019.6
20260502100204 58 110 2.0 6.0 0.00 0.00 0.00 79 1019.5
20260502091454 57 51 3.0 6.0 0.00 0.00 0.00 82 1019.4
20260502090805 57 95 2.0 6.0 0.00 0.00 0.00 81 1019.4
20260502090205 57 87 0.0 5.0 0.00 0.00 0.00 82 1019.3
20260502071404 56 70 3.0 6.0 0.00 0.00 0.00 83 1019.5
20260502070804 56 85 3.0 5.0 0.00 0.00 0.00 83 1019.5
20260502070205 56 94 3.0 4.0 0.00 0.00 0.00 82 1019.6
20260502065605 57 75 2.0 5.0 0.00 0.00 0.00 81 1019.6
20260502065005 57 74 2.0 5.0 0.00 0.00 0.00 82 1019.6
20260502064405 57 76 2.0 5.0 0.00 0.00 0.00 81 1019.6
20260502063805 58 62 2.0 7.0 0.00 0.00 0.00 81 1019.6
20260502063204 57 70 0.0 5.0 0.00 0.00 0.00 83 1019.6
20260502062605 56 107 2.0 4.0 0.00 0.00 0.00 82 1019.7
20260502062004 56 88 2.0 3.0 0.00 0.00 0.00 83 1019.7
20260502061405 55 94 0.0 0.0 0.00 0.00 0.00 83 1019.6
20260502060829 55 115 0.0 0.0 0.00 0.00 0.00 82 1019.5
20260502060205 56 115 0.0 0.0 0.00 0.00 0.00 82 1019.5
20260502055604 57 64 0.0 0.0 0.00 0.00 0.00 81 1019.5
20260502055017 57 160 0.0 0.0 0.00 0.00 0.00 80 1019.3
20260502054404 58 160 0.0 3.0 0.00 0.00 0.00 80 1019.3
20260502053805 59 67 0.0 4.0 0.00 0.00 0.00 80 1019.3
20260502053205 59 84 0.0 7.0 0.00 0.00 0.00 80 1019.1
20260502052604 59 53 2.0 7.0 0.00 0.00 0.00 80 1018.9
20260502052005 59 85 3.0 7.0 0.00 0.00 0.00 79 1018.9
20260502051405 60 79 3.0 6.0 0.00 0.00 0.00 79 1018.9
20260502050829 60 56 2.0 8.0 0.00 0.00 0.00 78 1018.8
20260502050204 60 73 2.0 4.0 0.00 0.00 0.00 78 1018.8
20260502045605 60 22 0.0 4.0 0.00 0.00 0.00 77 1018.6
20260502045005 61 63 0.0 9.0 0.00 0.00 0.00 76 1018.7
20260502044405 61 87 3.0 8.0 0.00 0.00 0.00 76 1018.7
20260502043830 61 94 3.0 9.0 0.00 0.00 0.00 77 1018.5
20260502043230 61 96 2.0 9.0 0.00 0.00 0.00 77 1018.5
20260502042604 61 67 3.0 8.0 0.00 0.00 0.00 76 1018.4
20260502042005 61 66 3.0 11.0 0.00 0.00 0.00 76 1018.3
20260502041405 62 75 4.0 7.0 0.00 0.00 0.00 75 1018.2
20260502040805 62 144 3.0 8.0 0.00 0.00 0.00 74 1018.2
20260502040243 63 63 2.0 10.0 0.00 0.00 0.00 72 1018.3
20260502035605 63 108 4.0 10.0 0.00 0.00 0.00 71 1018.2
20260502035017 64 103 4.0 9.0 0.00 0.00 0.00 70 1018.1
20260502034417 64 113 5.0 11.0 0.00 0.00 0.00 70 1018.1
20260502033806 64 121 3.0 7.0 0.00 0.00 0.00 70 1018.0
20260502033242 64 122 4.0 8.0 0.00 0.00 0.00 70 1017.9
20260502032605 64 98 4.0 7.0 0.00 0.00 0.00 70 1018.0
20260502032005 65 116 0.0 7.0 0.00 0.00 0.00 70 1017.9
20260502031404 65 193 0.0 6.0 0.00 0.00 0.00 67 1017.9
20260502030806 66 97 3.0 9.0 0.00 0.00 0.00 65 1017.8
20260502030205 66 132 3.0 8.0 0.00 0.00 0.00 65 1017.7
20260502025604 65 117 2.0 5.0 0.00 0.00 0.00 67 1017.5